Winston-Salem, NC

1:32 PM EDT on July 21, 2017 (GMT -0400)
Smith Reynolds

Weather History for KINT - January, 2013

Change the Weather History Date:

Thursday, January 17, 2013

  Actual Average Record
Temperature  
Mean Temperature 40 °F -  
Max Temperature 48 °F 45 °F 70 °F (1974)
Min Temperature 33 °F 29 °F -8 °F (1977)
Degree Days  
Heating Degree Days 24    
Moisture  
Dew Point 40 °F    
Average Humidity 96    
Maximum Humidity 100    
Minimum Humidity 87    
Precipitation  
Precipitation 2.22 in - - ()
Sea Level Pressure  
Sea Level Pressure 30.01 in    
Wind  
Wind Speed 6 mph (NNE)    
Max Wind Speed 21 mph    
Max Gust Speed 37 mph    
Visibility 4 miles    
Events Rain , Snow    
Averages and records for this station are not official NWS values.
T = Trace of Precipitation, MM = Missing Value Source: NWS Daily Summary

Daily Weather History Graph

Daily Weather History Graph

Search for Another Location

Airport or City:

Trip Planner

Search our weather history database for the weather conditions in past years. The results will help you decide how hot, cold, wet, or windy it might be!

Date:

Astronomy

Jan. 17, 2013 Rise Set
Actual Time 7:30 AM EST 5:32 PM EST
Civil Twilight 7:02 AM EST 6:00 PM EST
Nautical Twilight 6:31 AM EST 6:31 PM EST
Astronomical Twilight 6:00 AM EST 7:02 PM EST
Moon 10:49 AM EST (1/17) No Moon Set
Length of Visible Light 10h 57m
Length of Day
10h 01m
Waxing Crescent, 37% of the Moon is Illuminated
Jan 17
Waxing Crescent
Jan 18
First Quarter
Jan 26
Full
Feb 3
Last Quarter
Feb 10
New

Hourly Weather History & Observations

Time (EST) Temp. Windchill Dew Point Humidity Pressure Visibility Wind Dir Wind Speed Gust Speed Precip Events Conditions
12:54 AM 48.0 °F - 48.0 °F 100% 29.99 in 4.0 mi Calm Calm - 0.03 in Rain Light Rain
1:07 AM 48.2 °F - 48.2 °F 100% 29.98 in 2.5 mi Calm Calm - 0.03 in Rain Rain
1:19 AM 48.2 °F - 48.2 °F 100% 29.98 in 4.0 mi Calm Calm - 0.03 in Rain Light Rain
1:29 AM 48.2 °F - 48.2 °F 100% 29.98 in 4.0 mi Calm Calm - 0.04 in Rain Light Rain
1:36 AM 48.2 °F - 48.2 °F 100% 29.97 in 3.0 mi Calm Calm - 0.04 in Rain Light Rain
1:54 AM 48.0 °F - 46.9 °F 96% 29.97 in 3.0 mi Calm Calm - 0.05 in Rain Light Rain
2:01 AM 48.2 °F - 46.4 °F 93% 29.96 in 2.5 mi Calm Calm - 0.00 in Rain Light Rain
2:09 AM 48.2 °F - 46.4 °F 93% 29.96 in 2.0 mi Calm Calm - 0.00 in Rain Light Rain
2:19 AM 48.2 °F - 46.4 °F 93% 29.96 in 3.0 mi North 3.5 mph - 0.01 in Rain Light Rain
2:29 AM 48.2 °F - 48.2 °F 100% 29.98 in 5.0 mi Calm Calm - 0.01 in Rain Light Rain
2:54 AM 48.9 °F - 48.0 °F 97% 29.99 in 2.5 mi NNW 5.8 mph - 0.05 in Rain Rain
3:13 AM 48.2 °F - 48.2 °F 100% 29.98 in 3.0 mi North 3.5 mph - 0.04 in Rain Light Rain
3:18 AM 48.2 °F - 48.2 °F 100% 29.98 in 2.5 mi North 3.5 mph - 0.06 in Rain Rain
3:35 AM 48.2 °F - 48.2 °F 100% 29.98 in 4.0 mi NNE 4.6 mph - 0.08 in Rain Light Rain
3:54 AM 48.9 °F - 48.0 °F 97% 29.98 in 2.5 mi NNE 3.5 mph - 0.10 in Rain Light Rain
4:22 AM 48.2 °F - 48.2 °F 100% 29.98 in 3.0 mi NNE 5.8 mph - 0.03 in Rain Light Rain
4:54 AM 48.9 °F - 48.0 °F 97% 29.98 in 10.0 mi NE 5.8 mph - 0.04 in   Overcast
5:54 AM 48.9 °F - 46.9 °F 93% 29.98 in 5.0 mi ENE 4.6 mph - 0.04 in Rain Light Rain
6:54 AM 48.0 °F - 46.9 °F 96% 30.01 in 5.0 mi NE 5.8 mph - 0.04 in Rain Rain
7:18 AM 48.2 °F - 46.4 °F 93% 30.01 in 6.0 mi NE 5.8 mph - 0.04 in Rain Light Rain
7:54 AM 46.9 °F - 45.0 °F 93% 30.01 in 6.0 mi NE 9.2 mph - 0.05 in Rain Light Rain
8:03 AM 46.4 °F 41.1 °F 44.6 °F 93% 30.01 in 4.0 mi NE 11.5 mph 19.6 mph 0.02 in Rain Light Rain
8:29 AM 46.4 °F 42.4 °F 44.6 °F 93% 30.02 in 8.0 mi NE 8.1 mph - 0.03 in Rain Light Rain
8:54 AM 46.0 °F 40.6 °F 44.1 °F 93% 30.04 in 4.0 mi NE 11.5 mph 17.3 mph 0.05 in Rain Light Rain
9:06 AM 46.4 °F 41.9 °F 42.8 °F 87% 30.04 in 3.0 mi NE 9.2 mph 20.7 mph 0.02 in Rain Light Rain
9:39 AM 44.6 °F 39.7 °F 42.8 °F 93% 30.03 in 5.0 mi ENE 9.2 mph - 0.03 in Rain Light Rain
9:52 AM 44.6 °F 39.7 °F 44.6 °F 100% 30.02 in 8.0 mi ENE 9.2 mph - 0.03 in Rain Light Rain
9:54 AM 45.0 °F 40.6 °F 44.1 °F 97% 30.02 in 8.0 mi NE 8.1 mph - 0.03 in Rain Light Rain
10:54 AM 44.1 °F 36.8 °F 41.0 °F 89% 30.03 in 6.0 mi ENE 16.1 mph 23.0 mph 0.02 in Rain Light Rain
11:19 AM 42.8 °F 34.8 °F 39.2 °F 87% 30.02 in 1.8 mi NE 17.3 mph 23.0 mph 0.03 in Rain Rain
11:54 AM 41.0 °F 34.7 °F 39.0 °F 93% 30.01 in 1.5 mi NE 10.4 mph 19.6 mph 0.19 in Rain Heavy Rain
12:01 PM 41.0 °F 34.3 °F 39.2 °F 93% 30.01 in 3.0 mi NE 11.5 mph 19.6 mph 0.01 in Rain Light Rain
12:09 PM 41.0 °F 34.7 °F 39.2 °F 93% 30.00 in 2.5 mi NE 10.4 mph 21.9 mph 0.02 in Rain Rain
12:21 PM 41.0 °F 34.7 °F 39.2 °F 93% 30.00 in 2.5 mi NNE 10.4 mph 18.4 mph 0.03 in Rain Light Rain
12:29 PM 41.0 °F 33.9 °F 39.2 °F 93% 30.00 in 4.0 mi NNE 12.7 mph 18.4 mph 0.03 in Rain Light Rain
12:54 PM 41.0 °F 33.5 °F 37.9 °F 89% 29.96 in 4.0 mi NE 13.8 mph 23.0 mph 0.04 in Rain Light Rain
1:44 PM 39.2 °F 31.2 °F 37.4 °F 93% 29.93 in 2.5 mi NNE 13.8 mph 26.5 mph 0.01 in Rain Light Rain
1:54 PM 39.0 °F 30.6 °F 37.0 °F 93% 29.91 in 3.0 mi NNE 15.0 mph 25.3 mph 0.01 in Rain Light Rain
2:18 PM 39.2 °F 31.2 °F 37.4 °F 93% 29.93 in 2.0 mi North 13.8 mph 21.9 mph 0.02 in Rain Light Rain
2:50 PM 39.2 °F 32.5 °F 37.4 °F 93% 29.92 in 4.0 mi NNE 10.4 mph 25.3 mph 0.05 in Rain Light Rain
2:54 PM 39.0 °F 31.0 °F 37.9 °F 96% 29.93 in 5.0 mi North 13.8 mph 23.0 mph 0.05 in Rain Light Rain
3:46 PM 39.2 °F 31.2 °F 37.4 °F 93% 29.94 in 2.0 mi NNE 13.8 mph 20.7 mph 0.01 in Rain Light Rain
3:54 PM 39.0 °F 30.6 °F 37.9 °F 96% 29.96 in 2.0 mi North 15.0 mph 21.9 mph 0.03 in Rain Light Rain
4:02 PM 39.2 °F 31.2 °F 37.4 °F 93% 29.96 in 1.2 mi North 13.8 mph - 0.07 in Rain Heavy Rain
4:17 PM 39.2 °F 29.8 °F 37.4 °F 93% 29.93 in 2.0 mi NNE 18.4 mph 25.3 mph 0.14 in Rain Heavy Rain
4:31 PM 39.2 °F 30.2 °F 37.4 °F 93% 29.94 in 3.0 mi NNE 17.3 mph 26.5 mph 0.17 in Rain Rain
4:54 PM 37.9 °F 28.2 °F 37.0 °F 97% 29.93 in 3.0 mi NNE 18.4 mph 29.9 mph 0.27 in Rain Heavy Rain
5:36 PM 37.4 °F 27.2 °F 35.6 °F 93% 29.90 in 2.5 mi NNE 19.6 mph 36.8 mph 0.20 in Rain Heavy Rain
5:43 PM 37.4 °F 30.3 °F 35.6 °F 93% 29.95 in 4.0 mi North 10.4 mph 31.1 mph 0.22 in Rain Rain
5:54 PM 37.9 °F 27.6 °F 36.0 °F 93% 29.95 in 3.0 mi NNE 20.7 mph 27.6 mph 0.27 in Rain Heavy Rain
6:54 PM 34.0 °F 23.4 °F 34.0 °F 100% 30.00 in 1.8 mi NNE 17.3 mph 28.8 mph 0.22 in Snow Light Snow
7:05 PM 35.6 °F 26.2 °F 33.8 °F 93% 30.00 in 2.5 mi NNE 15.0 mph 31.1 mph 0.04 in Snow Light Snow
7:16 PM 33.8 °F 23.2 °F 33.8 °F 100% 30.00 in 1.2 mi NNE 17.3 mph 31.1 mph 0.08 in Snow Light Snow
7:42 PM 33.8 °F 24.3 °F 33.8 °F 100% 30.02 in 2.5 mi NNE 13.8 mph 23.0 mph 0.17 in Snow Light Snow
7:54 PM 33.1 °F 23.9 °F 33.1 °F 100% 30.01 in 1.2 mi NNE 12.7 mph 23.0 mph 0.21 in Snow Light Snow
8:47 PM 33.8 °F 26.4 °F 33.8 °F 100% 30.02 in 0.8 mi NE 9.2 mph 18.4 mph 0.17 in Snow Light Snow
8:54 PM 33.1 °F 24.4 °F 33.1 °F 100% 30.03 in 0.8 mi NE 11.5 mph - 0.19 in Snow Light Snow
9:06 PM 33.8 °F 27.0 °F 33.8 °F 100% 30.04 in 1.0 mi NNE 8.1 mph - 0.04 in Snow Light Snow
9:30 PM 33.8 °F - 33.8 °F 100% 30.06 in 1.0 mi North - - 0.14 in Snow Light Snow
9:38 PM 33.8 °F - 33.8 °F 100% 30.07 in 0.8 mi North - - 0.16 in Snow Light Snow
9:54 PM 33.1 °F - 33.1 °F 100% 30.10 in 1.0 mi North - - 0.19 in Snow Light Snow
10:03 PM 33.8 °F - 33.8 °F 100% 30.10 in 1.0 mi North - - 0.01 in Snow Light Snow
10:14 PM 33.8 °F - 33.8 °F 100% 30.11 in 0.8 mi North - - 0.04 in Snow Light Snow
10:28 PM 33.8 °F - 33.8 °F 100% 30.13 in 1.5 mi North - - 0.05 in Snow Light Snow
10:34 PM 33.8 °F - 33.8 °F 100% 30.14 in 3.0 mi North - - 0.05 in Snow Light Snow
10:54 PM 33.1 °F - 33.1 °F 100% 30.18 in 9.0 mi North - - 0.05 in   Overcast
11:02 PM 33.8 °F - 33.8 °F 100% 30.16 in 10.0 mi North - - N/A   Overcast
11:23 PM 33.8 °F - 33.8 °F 100% 30.17 in 10.0 mi North - - 0.00 in   Overcast
11:54 PM 34.0 °F - 33.1 °F 96% 30.19 in 10.0 mi North - - 0.00 in   Overcast